SCP
0 0 0 0 0 0 0 0 0 0 0 0 0 0 -0 0 0 0 0 0 0 0 0 0 -0 0 -0 0 -0 0 -0 0 0 0 0 0 0 0 0 0 -0 0 0 0
0 0 0 0 0 0 0 0 0 0 0 0 0 0 0 0 0 0 0 0 0 0 0 0 0 0 0 0 -0 0 0 0 0 0 0 0 0 -0 -0 -0 -0 0 0 0
0 0 0 0 0 0 0 0 0 0 0 0 0 0 0 0 0 0 0 0 0 0 0 0 0 0 0 0 0 0 0 0 0 0 0 0 0 0 0 0 0 0 0 0
0 0 0 0 0 0 0 0 0 0 0 0 0 0 0 0 0 0 0 0 0 0 0 0 0 0 0 0 0 0 0 0 0 0 0 0 0 0 0 0 0 0 0 0
0 0 0 0 0 0 0 0 0 0 0 0 0 0 0 0 0 0 0 0 0 0 0 0 0 0 0 0 0 0 0 0 0 0 0 0 0 0 0 0 0 0 0 0
0 0 0 0 0 0 0 0 0 0 0 0 0 0 0 0 0 0 0 0 0 0 0 0 0 0 0 0 0 -0 -0 0 0 0 0 0 0 0 0 0 0 0 0 -0
0 0 0 0 0 0 0 0 0 0 0 0 0 0 0 0 0 0 0 0 0 0 0 0 0 0 0 0 0 0 0 0 0 0 0 0 0 0 0 0 0 0 0 0
0 0 0 0 0 0 0 0 0 0 0 0 0 0 0 0 0 0 0 0 0 0 0 0 0 0 0 0 0 0 0 0 0 0 0 0 0 0 0 0 0 0 0 0
0 0 0 0 0 0 0 0 0 0 0 0 0 0 0 0 0 0 0 0 0 0 0 0 0 0 0 0 0 0 0 0 0 0 0 0 0 0 0 0 0 0 0 0
0 0 0 0 0 0 0 0 0 0 0 0 0 0 0 0 0 0 0 0 0 0 0 0 0 0 0 0 0 0 0 0 0 0 0 0 0 0 0 0 0 0 0 0
0 0 0 0 0 0 0 0 0 0 0 0 0 0 0 0 0 0 0 0 0 0 0 0 0 0 0 0 0 0 0 0 0 0 0 0 0 0 0 0 0 0 0 0
0 0 0 0 0 0 0 0 0 0 0 0 0 0 0 0 0 0 0 0 0 0 0 0 0 0 0 0 0 0 0 0 0 0 0 0 0 0 0 0 0 0 0 0
0 0 0 0 0 0 0 0 0 0 0 0 0 0 0 0 0 0 0 0 0 0 0 0 0 0 0 0 0 0 0 0 0 0 0 0 0 0 0 0 0 0 0 0
-0 -0 0 -0 0 0 0 0 0 0 0 0 0 0 0 0 0 0 0 0 0 0 0 0 0 0 0 0 0 0 0 0 0 0 0 0 0 0 0 0 0 0 0 0
-0 -0 -0 0 0 0 0 0 0 0 0 0 0 0 0 0 0 0 0 0 0 0 0 0 0 0 0 0 0 0 0 0 0 0 0 0 0 0 0 0 0 0 0 0
-0 -0 -0 -0 -0 -0 0 0 0 0 0 0 0 0 0 0 0 0 0 0 0 0 0 0 0 0 0 0 0 0 0 0 0 0 0 0 0 0 0 0 0 0 0 0
-0 -0 -0 -0 -0 -0 0 0 0 0 0 0 0 0 0 0 0 0 0 0 0 0 0 0 0 0 0 0 0 0 0 0 0 0 0 0 0 0 0 0 0 0 0 0
-0 0 -0 -0 -0 -0 0 0 0 0 0 0 0 0 0 0 0 0 0 0 0 0 0 0 0 0 0 0 0 0 0 0 0 0 0 0 0 0 0 0 0 0 0 0
0 0 0 0 0 0 0 0 0 0 0 0 0 0 0 0 0 0 0 0 0 0 0 0 0 0 0 0 0 0 0 0 0 0 0 0 0 0 0 0 0 0 0 0
0 0 0 0 0 0 0 0 0 0 0 0 0 0 0 0 0 0 0 0 0 0 0 0 0 0 0 0 0 0 0 0 0 0 0 0 0 0 0 0 0 0 0 0
0 0 0 0 0 0 0 0 0 0 0 0 0 0 0 0 0 0 0 0 0 0 0 0 0 0 0 0 0 0 0 0 0 0 0 0 0 0 0 0 0 0 0 0
0 0 0 0 0 0 0 0 0 0 0 0 0 0 0 0 0 0 0 0 0 0 0 0 0 0 0 0 0 0 0 0 0 0 0 0 0 0 0 0 0 0 0 0
0 0 0 0 0 0 0 0 0 0 0 0 0 0 0 0 0 0 0 0 0 0 0 0 0 0 0 -0 -0 -0 -0 -0 -0 0 -0 -0 -0 -0 -0 0 0 0 0 0
0 0 0 0 0 0 0 0 0 0 0 0 0 0 0 0 0 0 0 0 0 0 0 0 0 0 0 0 -0 -0 -0 -0 -0 -0 -0 -0 -0 -0 0 0 0 0 0 0
0 0 0 0 0 0 0 0 0 0 0 0 0 0 0 0 0 0 0 0 0 0 0 -0 0 -0 0 0 -0 -0 -0 -0 -0 -0 -0 -0 -0 -0 -0 -0 0 0 0 0
0 0 0 0 0 0 0 0 0 0 0 0 0 0 0 0 0 0 0 0 0 -0 0 -0 -0 -0 0 0 0 -0 -0 -0 -0 -0 -0 -0 -0 -0 -0 -0 0 0 0 0
0 0 0 0 0 0 0 0 0 0 0 0 0 0 0 0 0 0 0 0 0 -0 0 0 -0 -0 0 -0 -0 -0 -0 -0 -0 -0 -0 -0 -0 -0 -0 0 0 0 0 0
Wind_Speed_500mb
34 27 26 27 28 20 13 14 14 12 34 29 36 31 44 49 17 24 24 19 15 22 36 32 42 41 43 24 53 57 46 20 26 43 32 30 41 38 38 26 33 20 25 12
36 30 23 23 24 23 14 13 12 13 38 17 26 38 47 47 27 26 27 22 21 22 26 20 31 28 35 26 41 48 41 36 29 31 35 36 33 43 45 44 39 35 17 4
38 30 21 19 20 17 10 13 12 16 34 48 34 34 40 43 31 33 32 15 9 18 27 27 22 25 19 22 35 15 34 35 36 27 33 34 36 34 38 43 28 26 24 32
36 26 21 18 16 14 8 16 15 6 16 31 33 33 32 35 35 46 27 22 30 26 24 25 22 27 30 25 20 25 35 38 40 38 34 18 25 36 35 38 39 38 35 28
33 19 23 19 13 8 7 16 10 10 33 13 36 31 32 34 38 33 42 29 33 30 26 24 25 31 26 33 28 30 37 38 33 33 35 30 35 33 28 36 35 35 37 40
31 19 25 26 15 9 7 9 19 15 18 27 22 29 31 35 28 40 28 32 35 30 29 9 21 21 21 35 34 35 33 30 29 23 30 35 36 36 29 30 31 31 32 34
25 19 18 22 21 10 6 13 14 21 22 19 20 29 31 26 27 20 28 26 28 2 3 8 17 20 8 9 23 37 32 32 22 20 14 26 20 25 31 28 27 24 26 22
21 16 14 19 20 12 7 10 10 19 19 23 24 18 20 21 8 15 10 22 3 3 13 18 25 19 21 22 20 19 18 20 19 20 18 13 16 10 11 12 23 31 29 27
21 20 14 19 20 13 4 8 10 13 19 3 12 15 24 21 19 27 20 6 17 16 15 23 30 24 21 25 16 23 24 21 19 16 21 24 27 15 13 11 11 32 29 23
19 16 14 23 22 15 3 7 9 9 25 6 8 11 13 23 25 23 24 16 23 26 21 24 26 28 35 31 36 18 23 16 22 20 20 4 15 12 6 16 12 27 27 25
21 17 15 21 22 14 2 5 9 5 21 5 4 8 13 11 21 12 23 10 18 21 24 23 19 20 13 18 6 14 23 24 22 25 29 26 29 9 10 10 17 23 27 28
19 15 17 20 21 8 6 4 9 9 16 15 4 5 4 6 12 20 4 8 9 18 11 11 7 11 2 12 14 10 7 15 11 14 11 19 32 34 24 21 22 24 26 31
19 18 19 20 11 4 10 1 8 8 15 17 20 17 6 7 7 5 14 2 6 7 10 15 9 3 12 12 5 7 9 16 8 1 17 17 22 26 25 21 22 25 27 29
17 17 19 11 4 9 12 5 6 9 15 5 21 11 7 11 10 9 7 9 5 3 4 5 2 3 5 8 10 9 18 10 14 5 25 9 9 20 25 19 23 29 30 30
18 15 10 6 8 7 12 3 2 3 6 3 23 24 16 14 16 18 14 7 3 2 8 9 4 8 6 3 3 7 25 20 10 13 20 16 17 21 23 24 31 34 35 36
16 10 7 9 6 4 3 3 2 4 8 9 3 13 16 16 20 23 23 14 10 3 3 10 7 8 10 2 3 17 22 19 19 16 20 26 27 21 26 32 36 39 41 40
9 10 12 14 12 10 4 3 8 9 9 3 2 7 11 10 12 18 21 20 15 13 11 5 7 10 7 3 15 21 19 21 20 16 28 32 28 36 37 39 40 40 43 43
9 11 10 15 15 12 9 6 5 6 5 2 1 6 13 10 6 14 9 14 14 14 9 9 8 14 2 10 25 20 20 20 20 24 28 34 39 41 41 42 44 45 45 44
5 10 6 9 9 4 10 22 28 15 5 15 5 6 6 2 9 12 12 6 10 1 9 8 7 6 13 30 35 30 27 31 35 38 40 43 46 49 50 50 50 52 51 49
7 3 4 5 4 6 11 7 6 8 8 16 16 16 12 9 11 7 11 7 5 9 7 5 18 11 21 28 26 24 28 31 37 45 48 49 52 54 58 61 63 62 62 61
7 5 8 5 5 1 5 3 6 10 7 10 13 19 8 9 9 9 10 6 3 9 7 6 9 8 25 26 22 23 28 31 37 36 40 44 49 55 58 62 61 63 66 69
7 5 6 8 6 4 3 6 9 5 4 6 3 10 6 7 6 3 1 4 6 9 4 7 7 9 20 22 26 28 30 32 34 36 41 44 46 50 56 61 64 65 66 67
7 6 7 8 8 9 9 11 8 6 6 9 8 7 4 4 3 5 6 3 10 9 7 6 4 3 17 25 26 28 30 32 36 40 43 46 51 53 56 61 68 64 64 65
5 5 8 7 10 12 10 10 8 11 11 10 7 5 5 2 1 8 5 7 2 7 5 2 2 9 25 28 26 28 34 37 40 42 48 52 58 62 62 62 65 67 66 65
12 12 8 9 8 7 11 14 9 13 6 10 6 6 6 1 3 6 9 5 8 6 5 5 16 30 30 29 29 32 35 38 40 48 53 58 64 71 73 70 67 62 61 62
11 14 5 11 4 10 11 14 11 13 11 6 2 4 4 9 5 9 10 6 5 1 7 23 29 28 27 28 32 33 36 36 37 42 49 56 67 75 74 70 66 61 55 56
8 8 14 11 6 6 11 14 14 13 7 6 9 9 16 9 8 7 6 1 4 16 21 23 24 25 26 27 29 33 35 35 36 39 45 52 68 70 80 79 79 67 63 58
Wind_Direction_500mb
332 324 324 327 329 338 356 261 223 178 166 189 211 220 232 239 244 210 258 286 262 246 245 195 221 207 219 202 214 205 223 248 229 203 214 219 251 211 236 248 234 259 286 229
339 334 324 330 333 340 338 249 148 162 176 220 216 224 235 243 225 216 224 228 238 227 259 223 212 218 217 173 214 197 205 230 244 221 197 209 228 237 237 228 246 255 219 231
339 339 333 331 329 330 315 260 201 162 207 241 282 215 225 230 214 259 226 249 229 230 241 225 209 218 171 171 227 148 219 221 228 239 223 190 209 244 258 270 269 263 258 280
341 340 342 336 328 325 294 232 249 116 191 228 233 252 217 223 215 219 242 233 251 229 227 216 231 215 150 197 176 189 225 228 235 236 270 249 239 206 225 246 260 262 270 282
348 342 343 345 335 329 254 294 296 312 264 222 216 233 245 229 221 207 219 226 215 242 245 216 220 207 168 192 181 216 209 234 233 240 251 240 248 246 242 220 240 263 281 285
347 343 335 348 359 69 283 319 275 273 268 247 230 222 223 234 242 226 229 221 237 218 233 349 338 343 215 184 184 204 212 230 227 234 243 248 234 240 231 238 239 242 245 253
334 338 342 357 6 2 322 318 291 267 254 234 241 235 226 233 235 210 217 236 235 41 329 261 270 267 252 284 215 205 213 217 238 250 276 241 233 238 213 250 264 273 275 280
352 346 346 353 355 346 342 303 299 281 271 277 239 268 257 200 167 233 252 211 338 226 222 220 214 208 213 215 233 248 265 222 225 237 236 247 169 58 346 312 63 23 356 354
2 8 347 348 354 345 36 285 296 268 282 281 357 283 234 234 207 203 230 246 229 231 235 217 208 209 199 205 197 242 253 247 282 240 268 262 72 36 7 311 174 10 3 4
359 11 356 348 347 340 252 270 314 267 267 272 315 261 312 242 273 222 178 198 203 215 232 222 216 225 211 211 204 188 227 245 229 235 258 178 32 14 312 242 45 6 4 357
347 349 339 346 344 341 190 249 275 291 275 43 299 320 336 311 263 276 111 201 230 198 231 226 221 234 185 227 48 229 204 217 229 244 253 241 352 61 359 51 51 19 10 4
355 354 343 340 345 360 153 263 272 280 255 344 276 283 332 307 340 332 284 339 350 26 242 238 307 191 84 261 217 180 262 12 360 18 53 87 59 75 62 39 46 20 11 4
353 342 338 334 347 89 160 315 289 259 252 220 195 148 74 23 338 305 307 160 8 42 356 346 43 49 342 205 280 95 120 8 286 260 119 96 84 62 40 32 22 7 1 353
331 329 337 348 37 121 106 69 292 234 286 302 131 127 93 75 58 55 58 73 74 39 331 262 256 228 314 335 42 322 51 309 9 249 68 315 142 44 9 355 354 348 346 344
339 335 353 42 115 130 107 54 30 3 320 316 131 115 95 78 62 61 65 91 90 166 190 220 212 67 297 116 330 51 23 24 350 34 32 349 359 338 338 345 335 331 329 329
359 23 55 107 127 39 320 227 176 16 86 278 76 110 82 76 66 64 62 66 89 118 147 66 77 53 293 287 105 62 67 29 7 348 342 324 308 324 323 322 322 320 318 315
35 61 77 69 94 12 272 300 254 162 133 357 214 138 103 64 81 69 67 72 69 90 113 61 66 113 281 358 46 28 23 7 337 324 335 324 322 316 314 311 311 309 306 305
76 57 53 70 89 63 62 17 100 105 156 99 128 164 133 9 111 99 69 94 98 36 89 160 86 139 98 58 23 7 14 352 346 336 322 313 312 309 307 307 307 305 304 303
2 15 73 79 27 82 100 82 69 72 36 350 35 100 101 120 92 116 108 127 74 244 107 109 255 137 52 31 19 11 359 347 340 330 320 316 312 309 305 302 300 298 297 296
346 34 249 97 94 112 92 91 219 188 56 31 20 353 100 316 159 86 122 35 129 143 75 240 87 74 59 15 352 342 337 330 327 321 319 316 311 309 305 302 299 297 293 289
33 315 71 20 25 3 234 228 60 24 80 37 2 42 33 50 345 101 350 71 239 145 116 264 116 101 13 359 358 357 343 334 329 324 317 313 308 306 305 302 297 294 290 286
103 95 33 357 329 293 267 89 105 92 84 100 59 75 65 66 341 302 289 109 221 86 176 359 80 34 3 345 336 342 340 337 334 330 322 318 315 312 307 303 300 297 291 287
30 21 21 9 4 18 40 25 39 63 43 54 40 107 53 125 270 64 233 183 76 136 38 53 109 18 321 329 335 338 342 341 341 336 330 328 321 315 310 307 307 302 295 288
14 56 26 352 28 36 18 14 39 28 26 359 10 118 72 53 319 315 72 72 48 74 91 74 34 352 339 341 347 349 349 350 344 339 336 337 335 330 326 320 311 311 307 295
33 29 44 37 348 0 346 353 16 17 358 338 35 47 107 84 90 16 41 78 72 57 97 52 4 342 335 335 345 348 342 342 348 351 345 338 338 337 332 333 331 323 312 305
53 43 38 0 307 23 14 12 13 10 334 358 324 283 54 55 23 44 35 50 64 296 289 306 313 317 322 331 335 334 338 340 345 349 351 351 348 345 342 345 343 340 332 319
53 19 17 16 347 343 359 10 6 20 358 38 2 34 35 19 47 38 20 39 267 302 296 295 293 301 314 324 324 331 337 341 348 350 356 355 353 351 356 355 354 352 349 339
Wind_Speed_850mb
34 27 26 27 28 20 13 14 14 12 34 29 36 31 44 49 17 24 24 19 15 22 36 32 42 41 43 24 53 57 46 20 26 43 32 30 41 38 38 26 33 20 25 12
36 30 23 23 24 23 14 13 12 13 38 17 26 38 47 47 27 26 27 22 21 22 26 20 31 28 35 26 41 48 41 36 29 31 35 36 33 43 45 44 39 35 17 4
38 30 21 19 20 17 10 13 12 16 34 48 34 34 40 43 31 33 32 15 9 18 27 27 22 25 19 22 35 15 34 35 36 27 33 34 36 34 38 43 28 26 24 32
36 26 21 18 16 14 8 16 15 6 16 31 33 33 32 35 35 46 27 22 30 26 24 25 22 27 30 25 20 25 35 38 40 38 34 18 25 36 35 38 39 38 35 28
33 19 23 19 13 8 7 16 10 10 33 13 36 31 32 34 38 33 42 29 33 30 26 24 25 31 26 33 28 30 37 38 33 33 35 30 35 33 28 36 35 35 37 40
31 19 25 26 15 9 7 9 19 15 18 27 22 29 31 35 28 40 28 32 35 30 29 9 21 21 21 35 34 35 33 30 29 23 30 35 36 36 29 30 31 31 32 34
25 19 18 22 21 10 6 13 14 21 22 19 20 29 31 26 27 20 28 26 28 2 3 8 17 20 8 9 23 37 32 32 22 20 14 26 20 25 31 28 27 24 26 22
21 16 14 19 20 12 7 10 10 19 19 23 24 18 20 21 8 15 10 22 3 3 13 18 25 19 21 22 20 19 18 20 19 20 18 13 16 10 11 12 23 31 29 27
21 20 14 19 20 13 4 8 10 13 19 3 12 15 24 21 19 27 20 6 17 16 15 23 30 24 21 25 16 23 24 21 19 16 21 24 27 15 13 11 11 32 29 23
19 16 14 23 22 15 3 7 9 9 25 6 8 11 13 23 25 23 24 16 23 26 21 24 26 28 35 31 36 18 23 16 22 20 20 4 15 12 6 16 12 27 27 25
21 17 15 21 22 14 2 5 9 5 21 5 4 8 13 11 21 12 23 10 18 21 24 23 19 20 13 18 6 14 23 24 22 25 29 26 29 9 10 10 17 23 27 28
19 15 17 20 21 8 6 4 9 9 16 15 4 5 4 6 12 20 4 8 9 18 11 11 7 11 2 12 14 10 7 15 11 14 11 19 32 34 24 21 22 24 26 31
19 18 19 20 11 4 10 1 8 8 15 17 20 17 6 7 7 5 14 2 6 7 10 15 9 3 12 12 5 7 9 16 8 1 17 17 22 26 25 21 22 25 27 29
17 17 19 11 4 9 12 5 6 9 15 5 21 11 7 11 10 9 7 9 5 3 4 5 2 3 5 8 10 9 18 10 14 5 25 9 9 20 25 19 23 29 30 30
18 15 10 6 8 7 12 3 2 3 6 3 23 24 16 14 16 18 14 7 3 2 8 9 4 8 6 3 3 7 25 20 10 13 20 16 17 21 23 24 31 34 35 36
16 10 7 9 6 4 3 3 2 4 8 9 3 13 16 16 20 23 23 14 10 3 3 10 7 8 10 2 3 17 22 19 19 16 20 26 27 21 26 32 36 39 41 40
9 10 12 14 12 10 4 3 8 9 9 3 2 7 11 10 12 18 21 20 15 13 11 5 7 10 7 3 15 21 19 21 20 16 28 32 28 36 37 39 40 40 43 43
9 11 10 15 15 12 9 6 5 6 5 2 1 6 13 10 6 14 9 14 14 14 9 9 8 14 2 10 25 20 20 20 20 24 28 34 39 41 41 42 44 45 45 44
5 10 6 9 9 4 10 22 28 15 5 15 5 6 6 2 9 12 12 6 10 1 9 8 7 6 13 30 35 30 27 31 35 38 40 43 46 49 50 50 50 52 51 49
7 3 4 5 4 6 11 7 6 8 8 16 16 16 12 9 11 7 11 7 5 9 7 5 18 11 21 28 26 24 28 31 37 45 48 49 52 54 58 61 63 62 62 61
7 5 8 5 5 1 5 3 6 10 7 10 13 19 8 9 9 9 10 6 3 9 7 6 9 8 25 26 22 23 28 31 37 36 40 44 49 55 58 62 61 63 66 69
7 5 6 8 6 4 3 6 9 5 4 6 3 10 6 7 6 3 1 4 6 9 4 7 7 9 20 22 26 28 30 32 34 36 41 44 46 50 56 61 64 65 66 67
7 6 7 8 8 9 9 11 8 6 6 9 8 7 4 4 3 5 6 3 10 9 7 6 4 3 17 25 26 28 30 32 36 40 43 46 51 53 56 61 68 64 64 65
5 5 8 7 10 12 10 10 8 11 11 10 7 5 5 2 1 8 5 7 2 7 5 2 2 9 25 28 26 28 34 37 40 42 48 52 58 62 62 62 65 67 66 65
12 12 8 9 8 7 11 14 9 13 6 10 6 6 6 1 3 6 9 5 8 6 5 5 16 30 30 29 29 32 35 38 40 48 53 58 64 71 73 70 67 62 61 62
11 14 5 11 4 10 11 14 11 13 11 6 2 4 4 9 5 9 10 6 5 1 7 23 29 28 27 28 32 33 36 36 37 42 49 56 67 75 74 70 66 61 55 56
8 8 14 11 6 6 11 14 14 13 7 6 9 9 16 9 8 7 6 1 4 16 21 23 24 25 26 27 29 33 35 35 36 39 45 52 68 70 80 79 79 67 63 58
Wind_Direction_850mb
332 324 324 327 329 338 356 261 223 178 166 189 211 220 232 239 244 210 258 286 262 246 245 195 221 207 219 202 214 205 223 248 229 203 214 219 251 211 236 248 234 259 286 229
339 334 324 330 333 340 338 249 148 162 176 220 216 224 235 243 225 216 224 228 238 227 259 223 212 218 217 173 214 197 205 230 244 221 197 209 228 237 237 228 246 255 219 231
339 339 333 331 329 330 315 260 201 162 207 241 282 215 225 230 214 259 226 249 229 230 241 225 209 218 171 171 227 148 219 221 228 239 223 190 209 244 258 270 269 263 258 280
341 340 342 336 328 325 294 232 249 116 191 228 233 252 217 223 215 219 242 233 251 229 227 216 231 215 150 197 176 189 225 228 235 236 270 249 239 206 225 246 260 262 270 282
348 342 343 345 335 329 254 294 296 312 264 222 216 233 245 229 221 207 219 226 215 242 245 216 220 207 168 192 181 216 209 234 233 240 251 240 248 246 242 220 240 263 281 285
347 343 335 348 359 69 283 319 275 273 268 247 230 222 223 234 242 226 229 221 237 218 233 349 338 343 215 184 184 204 212 230 227 234 243 248 234 240 231 238 239 242 245 253
334 338 342 357 6 2 322 318 291 267 254 234 241 235 226 233 235 210 217 236 235 41 329 261 270 267 252 284 215 205 213 217 238 250 276 241 233 238 213 250 264 273 275 280
352 346 346 353 355 346 342 303 299 281 271 277 239 268 257 200 167 233 252 211 338 226 222 220 214 208 213 215 233 248 265 222 225 237 236 247 169 58 346 312 63 23 356 354
2 8 347 348 354 345 36 285 296 268 282 281 357 283 234 234 207 203 230 246 229 231 235 217 208 209 199 205 197 242 253 247 282 240 268 262 72 36 7 311 174 10 3 4
359 11 356 348 347 340 252 270 314 267 267 272 315 261 312 242 273 222 178 198 203 215 232 222 216 225 211 211 204 188 227 245 229 235 258 178 32 14 312 242 45 6 4 357
347 349 339 346 344 341 190 249 275 291 275 43 299 320 336 311 263 276 111 201 230 198 231 226 221 234 185 227 48 229 204 217 229 244 253 241 352 61 359 51 51 19 10 4
355 354 343 340 345 360 153 263 272 280 255 344 276 283 332 307 340 332 284 339 350 26 242 238 307 191 84 261 217 180 262 12 360 18 53 87 59 75 62 39 46 20 11 4
353 342 338 334 347 89 160 315 289 259 252 220 195 148 74 23 338 305 307 160 8 42 356 346 43 49 342 205 280 95 120 8 286 260 119 96 84 62 40 32 22 7 1 353
331 329 337 348 37 121 106 69 292 234 286 302 131 127 93 75 58 55 58 73 74 39 331 262 256 228 314 335 42 322 51 309 9 249 68 315 142 44 9 355 354 348 346 344
339 335 353 42 115 130 107 54 30 3 320 316 131 115 95 78 62 61 65 91 90 166 190 220 212 67 297 116 330 51 23 24 350 34 32 349 359 338 338 345 335 331 329 329
359 23 55 107 127 39 320 227 176 16 86 278 76 110 82 76 66 64 62 66 89 118 147 66 77 53 293 287 105 62 67 29 7 348 342 324 308 324 323 322 322 320 318 315
35 61 77 69 94 12 272 300 254 162 133 357 214 138 103 64 81 69 67 72 69 90 113 61 66 113 281 358 46 28 23 7 337 324 335 324 322 316 314 311 311 309 306 305
76 57 53 70 89 63 62 17 100 105 156 99 128 164 133 9 111 99 69 94 98 36 89 160 86 139 98 58 23 7 14 352 346 336 322 313 312 309 307 307 307 305 304 303
2 15 73 79 27 82 100 82 69 72 36 350 35 100 101 120 92 116 108 127 74 244 107 109 255 137 52 31 19 11 359 347 340 330 320 316 312 309 305 302 300 298 297 296
346 34 249 97 94 112 92 91 219 188 56 31 20 353 100 316 159 86 122 35 129 143 75 240 87 74 59 15 352 342 337 330 327 321 319 316 311 309 305 302 299 297 293 289
33 315 71 20 25 3 234 228 60 24 80 37 2 42 33 50 345 101 350 71 239 145 116 264 116 101 13 359 358 357 343 334 329 324 317 313 308 306 305 302 297 294 290 286
103 95 33 357 329 293 267 89 105 92 84 100 59 75 65 66 341 302 289 109 221 86 176 359 80 34 3 345 336 342 340 337 334 330 322 318 315 312 307 303 300 297 291 287
30 21 21 9 4 18 40 25 39 63 43 54 40 107 53 125 270 64 233 183 76 136 38 53 109 18 321 329 335 338 342 341 341 336 330 328 321 315 310 307 307 302 295 288
14 56 26 352 28 36 18 14 39 28 26 359 10 118 72 53 319 315 72 72 48 74 91 74 34 352 339 341 347 349 349 350 344 339 336 337 335 330 326 320 311 311 307 295
33 29 44 37 348 0 346 353 16 17 358 338 35 47 107 84 90 16 41 78 72 57 97 52 4 342 335 335 345 348 342 342 348 351 345 338 338 337 332 333 331 323 312 305
53 43 38 0 307 23 14 12 13 10 334 358 324 283 54 55 23 44 35 50 64 296 289 306 313 317 322 331 335 334 338 340 345 349 351 351 348 345 342 345 343 340 332 319
53 19 17 16 347 343 359 10 6 20 358 38 2 34 35 19 47 38 20 39 267 302 296 295 293 301 314 324 324 331 337 341 348 350 356 355 353 351 356 355 354 352 349 339